SCP
0 0 0 0 0 0 0 0 0 0 0 0 0 0 0 0 0 -0 -0 -0 -0 0 0 0 0 1 1 1 1 1 1 1
0 0 0 0 0 0 0 0 0 0 0 0 0 0 0 0 -0 -0 -0 -0 -0 0 0 0 0 0 0 0 1 1 1 1
0 0 0 0 0 0 0 0 0 0 0 0 0 0 -0 -0 -0 -0 -0 0 0 0 0 0 0 -0 0 0 0 0 0 1
0 0 0 0 0 0 0 -0 -0 -0 0 0 0 -0 -0 -0 -0 0 0 0 0 0 0 0 0 0 0 0 0 0 0 0
0 0 0 0 -0 0 -0 -0 -0 0 0 0 -0 -0 -0 -0 0 0 0 0 0 0 0 0 0 1 0 0 0 0 0 0
0 0 0 0 0 0 -0 -0 0 0 0 -0 -0 -0 -0 0 0 0 0 0 0 0 0 0 0 0 0 0 0 0 -0 0
0 0 0 0 -0 -0 -0 -0 0 -0 -0 -0 0 0 0 0 0 0 0 0 0 0 0 0 0 0 0 0 0 0 0 0
0 -0 -0 0 -0 -0 -0 -0 -0 -0 -0 0 0 0 0 0 0 0 0 0 0 0 0 0 0 0 0 0 0 0 0 0
-0 0 0 0 0 -0 -0 -0 0 0 0 0 0 0 0 0 0 0 0 0 0 0 0 0 0 0 0 0 0 0 0 0
0 -0 0 0 0 0 -0 -0 0 0 0 0 0 0 0 0 0 0 0 0 0 0 0 0 0 0 0 0 0 0 0 0
0 0 -0 -0 -0 -0 -0 -0 -0 0 0 0 0 0 0 0 0 0 0 0 0 0 0 0 0 0 0 0 0 0 0 0
0 0 0 -0 0 0 -0 -0 -0 -0 0 0 0 0 0 0 0 0 0 0 0 0 0 0 0 0 0 0 0 0 0 0
0 0 0 0 0 0 0 0 -0 -0 0 0 0 0 0 0 0 0 0 0 0 0 0 0 0 0 0 0 0 0 0 0
0 0 0 0 0 0 0 0 0 0 0 0 0 0 0 0 0 0 -0 0 0 0 0 0 0 0 0 -0 -0 0 0 0
0 0 0 -0 -0 0 0 0 0 0 0 0 0 0 0 0 0 0 0 0 0 0 0 0 -0 0 -0 -0 -0 0 0 0
0 0 0 0 0 0 0 0 0 0 0 0 0 0 0 0 0 0 0 0 0 0 0 0 -0 -0 -0 0 -0 0 0 0
0 0 0 0 -0 0 -0 0 0 0 0 0 0 0 0 0 0 0 0 0 0 0 0 0 -0 -0 -0 0 0 0 0 0
0 0 0 0 0 0 0 0 0 0 0 0 0 0 0 0 0 0 0 0 0 0 0 -0 0 0 0 0 0 0 0 0
0 0 0 0 0 0 0 0 0 0 0 0 0 0 0 0 0 0 0 0 0 0 -0 0 0 0 0 0 0 0 0 0
0 0 0 0 0 0 0 0 0 0 0 0 0 0 0 -0 0 0 -0 0 -0 -0 0 0 0 0 0 0 0 0 0 0
Wind_Speed_500mb
43 45 49 56 58 47 42 44 46 45 44 49 56 62 71 77 75 73 79 79 73 66 64 66 58 54 58 60 72 75 70 69
64 59 62 57 63 49 52 50 49 46 47 53 64 67 73 80 79 78 77 65 63 60 65 62 64 62 65 69 73 73 69 71
70 71 61 59 59 58 54 56 54 56 58 61 66 73 74 73 71 72 59 57 55 57 62 66 64 64 63 59 61 54 54 57
77 72 65 70 72 77 76 68 69 67 69 71 73 69 69 68 68 62 53 51 50 54 66 66 62 49 52 54 61 63 59 54
77 77 80 81 75 70 72 77 83 78 77 74 67 64 64 69 63 55 50 51 47 58 60 54 45 32 40 45 52 32 53 68
78 79 75 70 72 71 70 71 69 66 66 65 66 64 68 62 54 45 53 46 48 52 41 40 30 32 24 23 17 32 31 51
76 76 80 83 79 70 71 66 63 57 64 65 64 60 60 56 45 47 43 41 33 30 35 32 24 22 2 27 18 33 40 41
76 90 82 77 74 68 64 67 65 76 63 56 58 54 55 48 39 39 29 29 30 28 29 23 16 20 31 23 18 24 35 40
80 72 72 71 74 68 70 69 68 63 59 48 43 49 42 32 29 29 35 18 19 17 16 18 18 22 23 13 10 16 18 26
69 81 80 73 66 64 69 68 61 56 43 40 39 26 25 22 27 36 22 18 9 7 10 11 18 20 17 19 21 16 18 5
83 80 81 73 63 56 61 57 48 36 31 27 19 19 17 22 28 14 15 8 4 11 15 20 27 25 20 23 21 25 13 23
81 79 78 71 56 50 44 38 31 25 20 15 16 15 10 17 17 11 11 8 12 17 23 25 27 25 24 31 33 28 21 33
83 75 64 59 53 44 34 30 24 24 21 23 18 12 19 19 9 15 7 9 15 18 20 24 28 28 26 21 37 35 38 95
71 65 66 56 45 37 26 20 23 24 25 21 16 17 16 11 6 14 15 13 21 18 18 16 21 17 22 28 33 47 104 104
67 67 58 33 30 30 21 17 18 23 26 23 15 17 19 9 13 15 22 24 25 20 20 16 9 20 34 51 70 103 107 100
57 42 43 41 23 22 8 2 15 25 27 17 30 22 15 15 16 20 25 36 38 37 24 20 23 33 71 99 106 106 102 99
44 38 35 29 25 14 5 13 11 18 19 24 24 24 19 19 23 26 34 38 38 40 41 40 54 77 97 99 97 92 97 106
46 44 34 28 25 18 11 15 17 18 17 20 19 21 25 24 29 37 39 41 49 54 60 76 91 98 93 82 77 77 82 96
36 37 38 37 39 28 14 14 19 20 20 21 25 26 25 30 35 44 51 60 73 81 83 85 92 91 84 82 80 74 82 75
39 41 40 31 18 18 18 17 18 20 23 24 26 31 36 39 44 52 63 77 81 91 83 70 85 88 81 80 77 72 64 64
Wind_Direction_500mb
312 318 321 313 327 306 301 295 299 298 298 296 292 292 289 290 287 286 282 275 278 283 279 276 255 262 259 250 243 239 228 226
324 326 318 318 316 315 323 317 309 302 296 292 291 289 287 286 287 284 284 280 273 282 275 270 249 251 251 241 246 243 231 223
315 314 317 316 315 320 317 310 308 299 293 291 289 291 291 290 290 289 284 280 274 282 276 264 254 255 261 254 249 237 241 228
308 312 317 315 310 309 309 306 304 301 296 293 290 289 291 292 294 291 285 279 277 280 279 271 261 270 258 253 255 266 259 254
315 314 310 308 306 302 300 298 299 294 291 292 290 289 286 294 291 287 288 279 282 280 283 271 261 264 254 251 238 220 251 257
308 307 306 306 305 302 300 295 291 287 287 287 288 287 289 288 285 283 284 285 289 288 282 268 251 247 244 240 204 188 206 227
305 304 303 302 300 299 297 292 288 287 288 284 281 282 284 279 273 286 281 294 281 281 276 272 245 246 242 237 215 212 220 232
307 304 303 302 300 299 294 292 288 288 288 285 283 281 273 268 270 272 281 268 279 279 263 272 231 200 201 210 200 202 204 208
307 304 303 299 299 297 293 291 288 288 290 287 275 269 266 268 270 278 289 287 287 282 253 233 206 193 201 203 168 147 171 182
308 307 306 305 302 298 295 292 290 291 285 275 270 254 264 264 265 293 269 278 282 248 199 195 180 179 180 155 155 154 123 211
313 311 308 308 304 296 292 290 293 290 278 271 248 274 274 271 279 223 258 241 217 186 179 180 174 170 157 154 147 133 112 169
317 315 313 313 314 310 301 298 289 271 266 251 262 268 263 281 193 225 232 181 164 171 173 178 175 173 173 174 162 156 156 182
321 317 316 315 320 314 308 305 283 248 241 246 227 269 288 189 197 193 212 156 174 185 181 192 192 182 176 187 185 177 183 150
328 328 325 322 323 316 294 295 261 235 223 228 225 228 237 232 234 187 168 157 164 162 182 193 200 204 177 176 181 165 150 139
336 334 338 324 325 325 304 285 248 217 201 192 195 206 203 223 198 181 158 144 136 137 139 150 172 159 165 165 157 146 142 136
347 351 352 350 312 318 315 263 184 188 173 168 182 186 189 207 190 172 159 151 141 134 136 142 135 142 151 149 146 139 134 130
3 3 356 355 15 7 97 153 142 145 171 187 187 199 190 190 174 168 160 153 146 134 135 140 149 149 150 148 145 140 138 137
13 15 11 13 20 21 62 137 162 174 171 186 188 175 172 169 166 159 153 138 130 132 140 143 150 146 141 139 142 146 144 139
35 24 25 38 44 52 62 98 140 147 154 158 164 166 159 161 152 144 138 132 133 131 130 135 143 140 138 139 136 136 140 137
38 44 40 35 34 38 59 104 134 144 143 150 157 153 150 147 144 141 134 130 133 137 133 130 138 137 135 140 145 141 135 137
Wind_Speed_850mb
43 45 49 56 58 47 42 44 46 45 44 49 56 62 71 77 75 73 79 79 73 66 64 66 58 54 58 60 72 75 70 69
64 59 62 57 63 49 52 50 49 46 47 53 64 67 73 80 79 78 77 65 63 60 65 62 64 62 65 69 73 73 69 71
70 71 61 59 59 58 54 56 54 56 58 61 66 73 74 73 71 72 59 57 55 57 62 66 64 64 63 59 61 54 54 57
77 72 65 70 72 77 76 68 69 67 69 71 73 69 69 68 68 62 53 51 50 54 66 66 62 49 52 54 61 63 59 54
77 77 80 81 75 70 72 77 83 78 77 74 67 64 64 69 63 55 50 51 47 58 60 54 45 32 40 45 52 32 53 68
78 79 75 70 72 71 70 71 69 66 66 65 66 64 68 62 54 45 53 46 48 52 41 40 30 32 24 23 17 32 31 51
76 76 80 83 79 70 71 66 63 57 64 65 64 60 60 56 45 47 43 41 33 30 35 32 24 22 2 27 18 33 40 41
76 90 82 77 74 68 64 67 65 76 63 56 58 54 55 48 39 39 29 29 30 28 29 23 16 20 31 23 18 24 35 40
80 72 72 71 74 68 70 69 68 63 59 48 43 49 42 32 29 29 35 18 19 17 16 18 18 22 23 13 10 16 18 26
69 81 80 73 66 64 69 68 61 56 43 40 39 26 25 22 27 36 22 18 9 7 10 11 18 20 17 19 21 16 18 5
83 80 81 73 63 56 61 57 48 36 31 27 19 19 17 22 28 14 15 8 4 11 15 20 27 25 20 23 21 25 13 23
81 79 78 71 56 50 44 38 31 25 20 15 16 15 10 17 17 11 11 8 12 17 23 25 27 25 24 31 33 28 21 33
83 75 64 59 53 44 34 30 24 24 21 23 18 12 19 19 9 15 7 9 15 18 20 24 28 28 26 21 37 35 38 95
71 65 66 56 45 37 26 20 23 24 25 21 16 17 16 11 6 14 15 13 21 18 18 16 21 17 22 28 33 47 104 104
67 67 58 33 30 30 21 17 18 23 26 23 15 17 19 9 13 15 22 24 25 20 20 16 9 20 34 51 70 103 107 100
57 42 43 41 23 22 8 2 15 25 27 17 30 22 15 15 16 20 25 36 38 37 24 20 23 33 71 99 106 106 102 99
44 38 35 29 25 14 5 13 11 18 19 24 24 24 19 19 23 26 34 38 38 40 41 40 54 77 97 99 97 92 97 106
46 44 34 28 25 18 11 15 17 18 17 20 19 21 25 24 29 37 39 41 49 54 60 76 91 98 93 82 77 77 82 96
36 37 38 37 39 28 14 14 19 20 20 21 25 26 25 30 35 44 51 60 73 81 83 85 92 91 84 82 80 74 82 75
39 41 40 31 18 18 18 17 18 20 23 24 26 31 36 39 44 52 63 77 81 91 83 70 85 88 81 80 77 72 64 64
Wind_Direction_850mb
312 318 321 313 327 306 301 295 299 298 298 296 292 292 289 290 287 286 282 275 278 283 279 276 255 262 259 250 243 239 228 226
324 326 318 318 316 315 323 317 309 302 296 292 291 289 287 286 287 284 284 280 273 282 275 270 249 251 251 241 246 243 231 223
315 314 317 316 315 320 317 310 308 299 293 291 289 291 291 290 290 289 284 280 274 282 276 264 254 255 261 254 249 237 241 228
308 312 317 315 310 309 309 306 304 301 296 293 290 289 291 292 294 291 285 279 277 280 279 271 261 270 258 253 255 266 259 254
315 314 310 308 306 302 300 298 299 294 291 292 290 289 286 294 291 287 288 279 282 280 283 271 261 264 254 251 238 220 251 257
308 307 306 306 305 302 300 295 291 287 287 287 288 287 289 288 285 283 284 285 289 288 282 268 251 247 244 240 204 188 206 227
305 304 303 302 300 299 297 292 288 287 288 284 281 282 284 279 273 286 281 294 281 281 276 272 245 246 242 237 215 212 220 232
307 304 303 302 300 299 294 292 288 288 288 285 283 281 273 268 270 272 281 268 279 279 263 272 231 200 201 210 200 202 204 208
307 304 303 299 299 297 293 291 288 288 290 287 275 269 266 268 270 278 289 287 287 282 253 233 206 193 201 203 168 147 171 182
308 307 306 305 302 298 295 292 290 291 285 275 270 254 264 264 265 293 269 278 282 248 199 195 180 179 180 155 155 154 123 211
313 311 308 308 304 296 292 290 293 290 278 271 248 274 274 271 279 223 258 241 217 186 179 180 174 170 157 154 147 133 112 169
317 315 313 313 314 310 301 298 289 271 266 251 262 268 263 281 193 225 232 181 164 171 173 178 175 173 173 174 162 156 156 182
321 317 316 315 320 314 308 305 283 248 241 246 227 269 288 189 197 193 212 156 174 185 181 192 192 182 176 187 185 177 183 150
328 328 325 322 323 316 294 295 261 235 223 228 225 228 237 232 234 187 168 157 164 162 182 193 200 204 177 176 181 165 150 139
336 334 338 324 325 325 304 285 248 217 201 192 195 206 203 223 198 181 158 144 136 137 139 150 172 159 165 165 157 146 142 136
347 351 352 350 312 318 315 263 184 188 173 168 182 186 189 207 190 172 159 151 141 134 136 142 135 142 151 149 146 139 134 130
3 3 356 355 15 7 97 153 142 145 171 187 187 199 190 190 174 168 160 153 146 134 135 140 149 149 150 148 145 140 138 137
13 15 11 13 20 21 62 137 162 174 171 186 188 175 172 169 166 159 153 138 130 132 140 143 150 146 141 139 142 146 144 139
35 24 25 38 44 52 62 98 140 147 154 158 164 166 159 161 152 144 138 132 133 131 130 135 143 140 138 139 136 136 140 137
38 44 40 35 34 38 59 104 134 144 143 150 157 153 150 147 144 141 134 130 133 137 133 130 138 137 135 140 145 141 135 137